• Join FlightAware (Why Join?)
  • Login
  • US Flag GB Flag 
03:08 EST


 

Airport Tracker/Info


-or-


 

Live Flight TrackerFlight Track Log ✈ N818GM ✈ 20-Jan-2014 ✈ KGNV - KTLH

Flight Track Log - Related Links

Times and Time Zones

All times are in EST time to prevent confusion due to time zone crossing. See the N818GM flight status page for this flight to view local times or setup timezone preferences in your user account.

Time Position Orientation Groundspeed Altitude Reporting Facility
EST Latitude Longitude Course Direction KTS MPH feet Rate Location/Type
11:42 29.7119 -82.3356 304° West 149 171 1,500  Level Jacksonville Center
11:43 29.7206 -82.3808 282° West 151 174 2,300 720 Climbing Jacksonville Center
11:44 29.7353 -82.4189 294° West 142 163 3,000 720 Climbing Jacksonville Center
11:45 29.7500 -82.4619 292° West 141 162 3,800 780 Climbing Jacksonville Center
11:46 29.7647 -82.5050 292° West 133 153 4,700 840 Climbing Jacksonville Center
11:47 29.7794 -82.5408 295° West 135 155 5,500 660 Climbing Jacksonville Center
11:48 29.7922 -82.5767 292° West 129 148 6,000 240 Climbing Jacksonville Center
11:49 29.8069 -82.6244 290° West 141 162 6,000 -60 Level Jacksonville Center
11:50 29.8236 -82.6700 293° West 152 175 5,900  Descending Jacksonville Center
11:51 29.8406 -82.7178 292° West 152 175 6,000  Climbing Jacksonville Center
11:52 29.8572 -82.7656 292° West 152 175 6,000  Level Jacksonville Center
11:53 29.8739 -82.8136 292° West 157 181 6,000  Level Jacksonville Center
11:54 29.8908 -82.8614 292° West 157 181 6,000  Level Jacksonville Center
11:55 29.9075 -82.9094 292° West 157 181 6,000  Level Jacksonville Center
11:56 29.9242 -82.9572 292° West 157 181 6,000  Level Jacksonville Center
11:57 29.9428 -83.0053 294° West 157 181 6,000  Level Jacksonville Center
11:58 29.9594 -83.0508 293° West 157 181 6,000  Level Jacksonville Center
11:59 29.9761 -83.0964 293° West 162 186 6,000 -300 Level Jacksonville Center
12:00 29.9928 -83.1444 292° West 162 186 5,500 -540 Descending Jacksonville Center
12:01 30.0136 -83.1947 296° West 172 198 5,000 -540 Descending Jacksonville Center
12:02 30.0300 -83.2453 291° West 172 198 4,500 -540 Descending Jacksonville Center
12:03 30.0444 -83.2933 289° West 172 198 4,000 -300 Descending Jacksonville Center
12:04 30.0592 -83.3367 291° West 167 192 4,000  Level Jacksonville Center
12:05 30.0756 -83.3822 293° West 162 186 4,100  Climbing Jacksonville Center
12:06 30.0900 -83.4256 291° West 156 180 4,000 -60 Descending Jacksonville Center
12:07 30.1044 -83.4711 290° West 150 173 4,000  Level Jacksonville Center
12:08 30.1208 -83.5169 292° West 150 173 4,100  Climbing Jacksonville Center
12:09 30.1353 -83.5650 289° West 150 173 4,000  Descending Jacksonville Center
12:10 30.1517 -83.6083 294° West 150 173 4,100  Climbing Jacksonville Center
12:11 30.1578 -83.6567 278° West 150 173 4,000  Descending Jacksonville Center
12:12 30.1575 -83.7044 270° West 150 173 4,100  Climbing Jacksonville Center
12:13 30.1572 -83.7525 270° West 150 173 4,100 -60 Level Jacksonville Center
12:14 30.1672 -83.8008 283° West 150 173 4,000 -60 Descending Jacksonville Center
12:15 30.1878 -83.8417 300° West 145 167 4,000  Level Jacksonville Center
12:16 30.2064 -83.8853 296° West 150 173 4,000 -60 Level Jacksonville Center
12:17 30.2247 -83.9286 296° West 155 178 3,900 -120 Descending Jacksonville Center
12:19 30.2609 -84.0029 299° West  Level FlightAware Approximate
12:26 30.3745 -84.2968 281° West  Level FlightAware Approximate
12:27 30.3820 -84.3421 281° West  Level FlightAware Approximate
12:28 30.3833 -84.3500 281° West  Level FlightAware Approximate
12:29 30.3967 -84.3509 281° West  Level Estimated
12:30 30.3967 -84.3509 281° West  Level Estimated
12:31 30.3967 -84.3509 281° West  Level Estimated
12:32 30.3967 -84.3509 281° West  Level Estimated
12:33 30.3967 -84.3509 281° West  Level Estimated
12:34 30.3967 -84.3509 281° West  Level Estimated